Freeland, MI

10:13 AM EST on February 26, 2017 (GMT -0500)
MBS International

Weather History for KMBS - January, 2013

Change the Weather History Date:

Sunday, January 27, 2013

  Actual Average Record
Temperature  
Mean Temperature 22 °F 22 °F  
Max Temperature 28 °F 29 °F 52 °F (2002)
Min Temperature 15 °F 15 °F -4 °F (2003)
Degree Days  
Heating Degree Days 44    
Month to date heating degree days  
Since 1 July heating degree days  
Cooling Degree Days 0    
Month to date cooling degree days  
Year to date cooling degree days  
Moisture  
Dew Point 18 °F    
Average Humidity 76    
Maximum Humidity 88    
Minimum Humidity 56    
Precipitation  
Precipitation 0.12 in 0.05 in 0.12 in (2013)
Month to date precipitation 1.52  
Year to date precipitation 1.52  
Snow  
Snow 0.00 in - - ()
Month to date snowfall  
Since 1 July snowfall  
Snow Depth -    
Sea Level Pressure  
Sea Level Pressure 30.31 in    
Wind  
Wind Speed 8 mph (SSE)    
Max Wind Speed 16 mph    
Max Gust Speed -    
Visibility 5 miles    
Events Fog , Rain , Snow    
T = Trace of Precipitation, MM = Missing Value Source: NWS Daily Summary

Daily Weather History Graph

Daily Weather History Graph

Search for Another Location

Airport or City:

Trip Planner

Search our weather history database for the weather conditions in past years. The results will help you decide how hot, cold, wet, or windy it might be!

Date:

Astronomy

Jan. 27, 2013 Rise Set
Actual Time 7:57 AM EST 5:41 PM EST
Civil Twilight 7:26 AM EST 6:12 PM EST
Nautical Twilight 6:52 AM EST 6:46 PM EST
Astronomical Twilight 6:18 AM EST 7:20 PM EST
Moon 6:37 PM EST (1/27) 7:47 AM EST (1/27)
Length of Visible Light 10h 45m
Length of Day
9h 43m
Full, 100% of the Moon is Illuminated
Jan 27
Full
Feb 3
Last Quarter
Feb 10
New
Feb 17
First Quarter
Feb 25
Full

Hourly Weather History & Observations

Time (EST) Temp. Windchill Dew Point Humidity Pressure Visibility Wind Dir Wind Speed Gust Speed Precip Events Conditions
12:53 AM 15.1 °F 6.4 °F 9.0 °F 77% 30.46 in 10.0 mi South 5.8 mph - N/A   Clear
1:53 AM 17.1 °F 8.7 °F 10.9 °F 77% 30.47 in 10.0 mi SSW 5.8 mph - N/A   Overcast
2:53 AM 18.0 °F 9.8 °F 10.9 °F 74% 30.46 in 10.0 mi SSE 5.8 mph - N/A   Mostly Cloudy
3:53 AM 18.0 °F 9.8 °F 10.9 °F 74% 30.45 in 10.0 mi South 5.8 mph - N/A   Mostly Cloudy
4:53 AM 19.0 °F 10.0 °F 10.9 °F 71% 30.46 in 10.0 mi South 6.9 mph - N/A   Overcast
5:53 AM 19.9 °F 11.1 °F 12.0 °F 71% 30.45 in 10.0 mi South 6.9 mph - N/A   Overcast
6:53 AM 18.0 °F 9.8 °F 10.9 °F 74% 30.46 in 10.0 mi South 5.8 mph - N/A   Mostly Cloudy
7:53 AM 19.0 °F 12.3 °F 12.0 °F 74% 30.46 in 10.0 mi SSE 4.6 mph - N/A   Overcast
8:53 AM 19.9 °F 11.1 °F 12.9 °F 74% 30.46 in 10.0 mi South 6.9 mph - N/A   Overcast
9:53 AM 23.0 °F 13.9 °F 14.0 °F 68% 30.46 in 10.0 mi South 8.1 mph - N/A   Overcast
10:53 AM 25.0 °F 17.1 °F 15.1 °F 66% 30.45 in 10.0 mi South 6.9 mph - N/A   Mostly Cloudy
11:53 AM 26.1 °F 14.5 °F 15.1 °F 63% 30.45 in 10.0 mi South 13.8 mph - N/A   Overcast
12:53 PM 27.0 °F 17.3 °F 16.0 °F 63% 30.43 in 10.0 mi South 10.4 mph - N/A   Overcast
1:53 PM 28.0 °F 18.1 °F 15.1 °F 58% 30.39 in 10.0 mi South 11.5 mph - N/A   Mostly Cloudy
2:53 PM 28.0 °F 18.1 °F 15.1 °F 58% 30.36 in 10.0 mi South 11.5 mph - N/A   Overcast
3:53 PM 28.9 °F 20.4 °F 15.1 °F 56% 30.32 in 10.0 mi South 9.2 mph - N/A   Overcast
5:53 PM 28.9 °F 21.9 °F 16.0 °F 58% 30.32 in 10.0 mi South 6.9 mph - N/A   Overcast
6:15 PM 28.4 °F 21.2 °F 15.8 °F 59% 30.29 in 2.0 mi South 6.9 mph - 0.00 in Snow Light Snow
6:30 PM 26.6 °F 17.5 °F 17.6 °F 69% 30.28 in 1.5 mi SSE 9.2 mph - 0.00 in Snow Light Snow
6:49 PM 26.6 °F 17.5 °F 19.4 °F 74% 30.28 in 3.0 mi SSE 9.2 mph - 0.00 in Snow Light Snow
6:50 PM 27.0 °F 17.3 °F 19.9 °F 75% 30.31 in 3.0 mi SSE 10.4 mph - 0.00 in Snow Light Snow
7:10 PM 26.6 °F 17.5 °F 19.4 °F 74% 30.28 in 1.0 mi South 9.2 mph - 0.00 in Snow Light Snow
7:21 PM 26.6 °F 17.5 °F 21.2 °F 80% 30.28 in 1.0 mi South 9.2 mph - 0.00 in Snow Light Snow
7:39 PM 26.6 °F 16.8 °F 21.2 °F 80% 30.27 in 0.8 mi SSE 10.4 mph - 0.01 in Snow Light Snow
7:53 PM 26.1 °F 15.6 °F 21.9 °F 84% 30.28 in 0.8 mi SE 11.5 mph - 0.02 in Snow Light Snow
8:16 PM 26.6 °F 16.8 °F 23.0 °F 86% 30.24 in 0.8 mi ESE 10.4 mph - 0.01 in Snow Light Snow
8:37 PM 26.6 °F 15.2 °F 23.0 °F 86% 30.21 in 0.8 mi ESE 13.8 mph - 0.02 in Snow Light Snow
8:50 PM 26.6 °F 15.7 °F 23.0 °F 86% 30.20 in 0.5 mi SE 12.7 mph - 0.02 in Snow Light Snow
8:53 PM 26.1 °F 14.5 °F 23.0 °F 88% 30.24 in 0.5 mi ESE 13.8 mph - 0.02 in Snow Light Snow
9:01 PM 26.6 °F 16.2 °F 23.0 °F 86% 30.21 in 0.5 mi SE 11.5 mph - 0.01 in Fog , Snow Snow
9:40 PM 26.6 °F 19.1 °F 23.0 °F 86% 30.21 in 0.5 mi ESE 6.9 mph - 0.03 in Snow Light Snow
9:48 PM 26.6 °F 16.8 °F 23.0 °F 86% 30.17 in 0.5 mi ESE 10.4 mph - 0.04 in Snow Light Snow
9:53 PM 26.1 °F 17.6 °F 23.0 °F 88% 30.22 in 0.5 mi ESE 8.1 mph - 0.05 in Snow Light Snow
10:14 PM 26.6 °F 16.2 °F 23.0 °F 86% 30.16 in 3.0 mi ESE 11.5 mph - 0.02 in Snow Light Snow
10:33 PM 26.6 °F 17.5 °F 23.0 °F 86% 30.17 in 5.0 mi SE 9.2 mph - 0.02 in   Overcast
10:53 PM 26.1 °F 16.2 °F 23.0 °F 88% 30.18 in 6.0 mi ESE 10.4 mph - 0.02 in   Overcast
11:02 PM 26.6 °F 16.8 °F 23.0 °F 86% 30.14 in 5.0 mi East 10.4 mph - N/A   Overcast
11:29 PM 26.6 °F 15.2 °F 23.0 °F 86% 30.13 in 5.0 mi East 13.8 mph - 0.00 in Rain Light Freezing Rain
11:43 PM 26.6 °F 14.3 °F 23.0 °F 86% 30.11 in 2.5 mi ESE 16.1 mph - 0.01 in Snow Light Snow
11:53 PM 28.0 °F 17.0 °F 24.1 °F 85% 30.14 in 3.0 mi ESE 13.8 mph - 0.01 in Snow Light Snow